Regional Weather Roundup
Issued by NWS Newport/Morehead, NC

Current Version | Previous Version | Text Only | Print | Product List | Glossary Off
Versions: 1 2 3 4 5 6 7 8 9 10 11 12 13 14 15 16 17 18 19 20 21 22 23 24 25 26 27 28 29 30 31 32 33 34 35 36 37 38 39 40 41 42 43 44 45 46 47 48 49 50

000
ASUS42 KMHX 022324
RWRMHX
WEATHER ROUNDUP FOR EASTERN NORTH CAROLINA
NATIONAL WEATHER SERVICE NEWPORT/MOREHEAD CITY NC
700 PM EDT SAT MAY 02 2015

NOTE: "FAIR" INDICATES FEW OR NO CLOUDS BELOW 12,000 FEET
WITH NO SIGNIFICANT WEATHER AND/OR OBSTRUCTIONS TO VISIBILITY

NCZ015>017-031-032-045>047-102-103-030000-
NORTH COAST

CITY           SKY/WX    TMP DP  RH WIND       PRES   REMARKS
EDENTON        CLEAR     61  51  70 E6        30.03R
ELIZABETH CITY CLEAR     62  49  62 E7        30.03R
KITTY HAWK     CLEAR     54  45  72 E3        30.03S
MANTEO         CLEAR     54  46  72 E7        30.05R

$$

NCZ045>047-081-094-103-104-030000-
CENTRAL COAST

CITY           SKY/WX    TMP DP  RH WIND       PRES   REMARKS
FRISCO         CLEAR     55  44  66 NE9G17    30.03S
SWANQUARTER      N/A     64 N/A N/A NE5G10    30.00R

$$

NCZ095-097-098-100-101-030000-
SOUTHERN COAST

CITY           SKY/WX    TMP DP  RH WIND       PRES   REMARKS
BEAUFORT       CLEAR     62  52  69 E7        30.03R
CEDAR ISLAND     N/A     63 N/A N/A E9        30.09R
JACKSONVILLE   SUNNY     70  46  42 N8        30.02R
PINEY ISLAND   CLEAR    N/A N/A N/A E12       30.03R
WILMINGTON     CLOUDY    70  53  54 CALM      30.02R


$$

NCZ011>013-027>030-043-044-078>080-089-090>093-098-030000-
COASTAL PLAIN

CITY           SKY/WX    TMP DP  RH WIND       PRES   REMARKS
AHOSKIE        CLOUDY    68  48  49 N3        30.03R
CLINTON        MOSUNNY   69  54  58 E3        30.04R
ELIZABETHTOWN  SUNNY     71  50  47 CALM      30.03R
GOLDSBORO      MOSUNNY   70  53  54 N3        30.01S
GREENVILLE     MOSUNNY   68  48  49 N3        30.04R
HAVELOCK       PTCLDY    69  47  45 NE5       30.03R
KENANSVILLE    SUNNY     67  50  55 CALM      30.04R
KINSTON        MOSUNNY   70  48  46 NW5       30.04R
NEW BERN       CLOUDY    69  47  45 NE7       30.03R
RICHLANDS      PTSUNNY   70  48  46 CALM      30.04R
ROCKY MOUNT    PTSUNNY   69  50  50 NW3       30.03S
WASHINGTON     PTCLDY    66  49  55 NE3       30.03R
WHITEVILLE     SUNNY     70  48  46 CALM      30.03R

$$

AMZ130-135-150-152-154-156-158-170-250-252-270-ANZ085-086-088-633-658-670-030000-
MARINE OBSERVATIONS

STATION/POSITION TIME  TEMP    WIND        PRES    WAVE   SWELL
                       AIR SEA DIR/SP/G            HT/PER HT/PER
                 (UTC) (F)     (DEG/KT/KT) (MB)    (FT/S) (FT/S)
CHESAPEAKE LIGHT 2300   51      90/ 10/ 11 1017.3
64 E VA BEACH    2250   56 63  330/ 12/ 16 1016.0   10/11  10/11
DUCK             2300   53 54   60/  7/  9 1016.3
2 E DUCK         2211      54                N/A     6/11   3/11
OREGON INLET     2300   53 57   30/  9/ 13 1017.1
13E OREGON INLT  2300      49                N/A     8/11   5/11
HATTERAS CG      2300   59 61   30/  9/ 13 1016.4
DIAMOND BUOY     2250   56 66   20/ 17/ 19 1016.7    6/13   5/13
CAPE LOOKOUT     2300   62      60/ 15/ 18 1016.5
BEAUFORT LAB     2300   62 62   80/  8/ 12 1015.9
27 SE WRIGHTSVLE 2300   66 72  270/  4/  6   N/A
5 SE WRIGHTSVLE  2208   66 67  220/  8/ 12 1016.4
225 S CAPE HAT   2250   65 70  340/ 23/ 29 1015.5   14/11   8/11
41 SE CHARLESTON 2250   69 72  220/  8/ 10 1017.0    3/ 9   2/ 9

$$



USA.gov is the U.S. government's official web portal to all federal, state and local government web resources and services.